Location: Grange Verzio
(44.5000°N, 6.9833°E)
Time: 12:38:56
(UTC+00:00)

Cosmos 1417 Rocket - Pass Details

Date: 01 February 2023
Orbit: 951 x 998 km, 83.0° (Epoch: 26 March)

Event Time Altitude Azimuth Distance (km) Brightness Sun altitude
Rises 18:49:56 0° 184° (S) 3,685 7.6 -23.2°
Reaches altitude 10° 18:52:27 10° 183° (S) 2,735 6.9 -23.6°
Maximum altitude 18:58:44 84° 96° (E) 988 4.4 -24.8°
Drops below altitude 10° 19:04:58 10° 9° (N) 2,720 6.7 -25.9°
Sets 19:07:28 0° 9° (N) 3,665 7.4 -26.3°
